Location: Isles
(48.9125°N, 2.8272°E)
Time: 05:53:39
(UTC+00:00)

CZ-4C R/B - Visible Passes

Search period start: 30 September 2023 00:00
Search period end: 10 October 2023 00:00
Orbit: 452 x 603 km, 98.1° (Epoch: 29 September)

Date Brightness Start Highest point End Pass type
(mag) Time Alt. Az. Time Alt. Az. Time Alt. Az.
30 Sep 6.3 04:52:37 10° E 04:54:38 14° ENE 04:56:37 10° NNE visible
30 Sep 3.1 19:28:12 10° N 19:31:37 74° WNW 19:35:04 10° SSW visible
01 Oct 6.6 04:42:28 10° ENE 04:43:30 11° ENE 04:44:33 10° NE visible
01 Oct 2.8 19:16:56 10° NNE 19:20:22 79° ESE 19:23:49 10° SSW visible
02 Oct 2.9 19:05:42 10° NNE 19:09:04 56° ESE 19:12:30 10° S visible
02 Oct 6.3 20:41:24 10° NW 20:42:55 13° WNW 20:44:28 10° W visible
03 Oct 3.3 18:54:30 10° NNE 18:57:45 40° E 18:59:40 21° SSE visible
03 Oct 5.9 20:29:33 10° NNW 20:31:46 16° WNW 20:33:58 10° WSW visible
04 Oct 3.8 18:43:21 10° NE 18:46:25 29° E 18:46:33 29° ESE visible
04 Oct 5.5 20:17:53 10° NNW 20:20:32 21° WNW 20:21:43 18° W visible
05 Oct 4.4 18:32:16 10° NE 18:34:04 20° ENE 18:34:04 20° ENE visible
05 Oct 5.0 20:06:20 10° N 20:09:15 28° WNW 20:09:15 28° WNW visible
06 Oct 5.7 05:18:07 10° ESE 05:21:00 23° ENE 05:23:49 10° NNE visible
06 Oct 5.1 18:21:18 10° NE 18:21:47 12° ENE 18:21:47 12° ENE visible
06 Oct 4.8 19:54:49 10° N 19:56:58 29° NNW 19:56:58 29° NNW visible
07 Oct 6.0 05:07:18 10° ESE 05:09:45 18° ENE 05:12:10 10° NNE visible
07 Oct 5.0 19:43:21 10° N 19:44:47 22° N 19:44:47 22° N visible
08 Oct 6.2 04:56:39 10° E 04:58:31 14° ENE 05:00:21 10° NNE visible
08 Oct 5.3 19:31:56 10° N 19:32:41 16° N 19:32:41 16° N visible
09 Oct 6.5 04:46:29 10° ENE 04:47:17 11° ENE 04:48:04 10° NE visible
09 Oct 5.7 19:20:32 10° NNE 19:20:36 10° NNE 19:20:36 10° NNE visible
